GBYWZ EGHR-EGHR

Flight info

Callsign GBYWZ
Flight time 0h 2m
Altitude 20000
Route EGHR/32
Aircraft DA62/L-V/N

Departure

Time 2026-04-19 15:16
Airport Goodwood Aerodrome (EGHR)

Arrival

Time 2026-04-19 15:18
Airport Goodwood Aerodrome (EGHR)
Time Latitude Longitude Altitude Speed Heading
2026-04-19 15:10 50.85781 -0.75570 103 ft 0 kts 347°
2026-04-19 15:11 50.85783 -0.75571 100 ft 1 kts 347°
2026-04-19 15:12 50.85790 -0.75601 102 ft 9 kts 216°
2026-04-19 15:12 50.85700 -0.75562 101 ft 15 kts 158°
2026-04-19 15:13 50.85629 -0.75504 101 ft 7 kts 110°
2026-04-19 15:13 50.85622 -0.75489 101 ft 0 kts 163°
2026-04-19 15:13 50.85615 -0.75491 101 ft 3 kts 216°
2026-04-19 15:13 50.85613 -0.75495 101 ft 0 kts 242°
2026-04-19 15:14 50.85616 -0.75511 101 ft 2 kts 319°
2026-04-19 15:14 50.85617 -0.75512 102 ft 0 kts 319°
2026-04-19 15:15 50.85626 -0.75525 101 ft 8 kts 319°
2026-04-19 15:15 50.85815 -0.75774 100 ft 62 kts 321°
2026-04-19 15:15 50.86236 -0.76297 231 ft 85 kts 321°
2026-04-19 15:16 50.86638 -0.76984 518 ft 98 kts 287°
2026-04-19 15:16 50.86413 -0.78237 521 ft 136 kts 251°
2026-04-19 15:16 50.86025 -0.79721 823 ft 134 kts 251°
2026-04-19 15:16 50.85692 -0.80843 1374 ft 92 kts 249°
2026-04-19 15:17 50.85445 -0.81655 1326 ft 85 kts 243°
2026-04-19 15:17 50.84786 -0.82256 824 ft 126 kts 211°
2026-04-19 15:17 50.83977 -0.82965 357 ft 140 kts 213°
2026-04-19 15:17 50.83175 -0.83823 27 ft 138 kts 224°
2026-04-19 15:18 50.82504 -0.84713 37 ft 115 kts 230°
2026-04-19 15:18 50.81889 -0.85377 23 ft 99 kts 209°
2026-04-19 15:18 50.85781 -0.75570 102 ft 0 kts 347°
2026-04-19 15:19 50.85787 -0.75586 100 ft 7 kts 255°
2026-04-19 15:19 50.85706 -0.75565 101 ft 13 kts 171°
2026-04-19 15:19 50.85673 -0.75598 101 ft 3 kts 319°
2026-04-19 15:20 50.85808 -0.75778 100 ft 53 kts 322°
2026-04-19 15:20 50.86180 -0.76268 163 ft 78 kts 321°
2026-04-19 15:20 50.86140 -0.77028 324 ft 102 kts 209°
2026-04-19 15:20 50.85443 -0.77261 323 ft 96 kts 161°
2026-04-19 15:21 50.84946 -0.76608 172 ft 91 kts 134°
2026-04-19 15:21 50.84546 -0.75813 314 ft 93 kts 100°
2026-04-19 15:21 50.84900 -0.75017 305 ft 94 kts 13°
2026-04-19 15:21 50.85467 -0.75300 115 ft 77 kts 319°
2026-04-19 15:22 50.85735 -0.75673 101 ft 10 kts 320°
2026-04-19 15:22 50.85750 -0.75692 101 ft 16 kts 320°
2026-04-19 15:22 50.85994 -0.76011 102 ft 70 kts 319°
2026-04-19 15:22 50.86395 -0.76570 373 ft 74 kts 318°
2026-04-19 15:23 50.86737 -0.77205 681 ft 84 kts 295°
2026-04-19 15:23 50.86607 -0.78388 633 ft 132 kts 260°
2026-04-19 15:23 50.86329 -0.79837 1003 ft 128 kts 254°
2026-04-19 15:23 50.86004 -0.81089 1520 ft 121 kts 253°
2026-04-19 15:24 50.85778 -0.82326 2031 ft 108 kts 284°
2026-04-19 15:24 50.86261 -0.83029 2405 ft 105 kts
2026-04-19 15:24 50.86964 -0.82832 2870 ft 98 kts
2026-04-19 15:24 50.87646 -0.82680 3233 ft 103 kts
2026-04-19 15:25 50.88336 -0.82552 3708 ft 96 kts
2026-04-19 15:25 50.89090 -0.82246 3769 ft 131 kts 37°
2026-04-19 15:25 50.89497 -0.80825 3833 ft 153 kts 71°
2026-04-19 15:25 50.89817 -0.79131 3795 ft 167 kts 57°
2026-04-19 15:26 50.90523 -0.77564 3513 ft 185 kts 52°
2026-04-19 15:26 50.91284 -0.75870 3477 ft 184 kts 52°
2026-04-19 15:26 50.91944 -0.74125 3393 ft 186 kts 61°
2026-04-19 15:26 50.92479 -0.72388 3805 ft 166 kts 60°
2026-04-19 15:27 50.92993 -0.70801 4077 ft 160 kts 58°
2026-04-19 15:27 50.93544 -0.69188 4043 ft 173 kts 58°
2026-04-19 15:27 50.94078 -0.67645 4699 ft 139 kts 57°
2026-04-19 15:27 50.94552 -0.66335 4949 ft 149 kts 56°
2026-04-19 15:28 50.95118 -0.64785 4875 ft 166 kts 57°
2026-04-19 15:28 50.95583 -0.63484 5413 ft 122 kts 59°
2026-04-19 15:28 50.95955 -0.62321 5294 ft 116 kts 63°
2026-04-19 15:28 50.96287 -0.61122 5058 ft 120 kts 65°
2026-04-19 15:29 50.96601 -0.59788 4611 ft 138 kts 70°
2026-04-19 15:29 50.96989 -0.58336 4099 ft 147 kts 37°
2026-04-19 15:29 50.97852 -0.58509 3993 ft 133 kts 316°
2026-04-19 15:29 50.98457 -0.59581 3775 ft 132 kts 314°
2026-04-19 15:30 50.99092 -0.60738 3575 ft 146 kts 313°
2026-04-19 15:30 50.99674 -0.61586 3637 ft 87 kts 358°
2026-04-19 15:30 51.00017 -0.60814 3497 ft 124 kts 70°
2026-04-19 15:30 51.00249 -0.59263 3382 ft 160 kts 72°
2026-04-19 15:31 51.00514 -0.57453 3287 ft 168 kts 73°
2026-04-19 15:31 51.00621 -0.55608 3095 ft 170 kts 76°
2026-04-19 15:31 51.01136 -0.53893 2660 ft 176 kts 58°
2026-04-19 15:31 51.01787 -0.52175 2169 ft 182 kts 55°
2026-04-19 15:32 51.02201 -0.51090 2236 ft 166 kts 56°
2026-04-19 15:32 51.02769 -0.49600 2320 ft 150 kts 56°
2026-04-19 15:32 51.03459 -0.47793 2421 ft 139 kts 55°
2026-04-19 15:32 51.04004 -0.46550 2486 ft 137 kts 58°
2026-04-19 15:33 51.04237 -0.45070 2488 ft 141 kts 79°
2026-04-19 15:33 51.04294 -0.44018 2489 ft 142 kts 81°
2026-04-19 15:33 51.04380 -0.42447 2489 ft 143 kts 81°
2026-04-19 15:33 51.04475 -0.40887 2486 ft 143 kts 80°
2026-04-19 15:34 51.04567 -0.39214 2494 ft 160 kts 81°
2026-04-19 15:34 51.04679 -0.37395 2498 ft 170 kts 80°
2026-04-19 15:34 51.04795 -0.35481 2499 ft 176 kts 81°
2026-04-19 15:34 51.04927 -0.33530 2503 ft 179 kts 80°
2026-04-19 15:35 51.05097 -0.31554 2498 ft 181 kts 78°
2026-04-19 15:35 51.05265 -0.29562 2501 ft 182 kts 81°
2026-04-19 15:35 51.04959 -0.27625 2483 ft 190 kts 121°
2026-04-19 15:35 51.03899 -0.26381 2483 ft 194 kts 160°
2026-04-19 15:36 51.02572 -0.25974 2484 ft 194 kts 171°
2026-04-19 15:36 51.01238 -0.25669 2484 ft 194 kts 171°
2026-04-19 15:36 50.99907 -0.25352 2485 ft 193 kts 171°
2026-04-19 15:36 50.98569 -0.25026 2490 ft 195 kts 171°
2026-04-19 15:37 50.97220 -0.24712 2488 ft 195 kts 171°
2026-04-19 15:37 50.95883 -0.24393 2487 ft 195 kts 171°
2026-04-19 15:37 50.94554 -0.24073 2488 ft 195 kts 171°
2026-04-19 15:37 50.93211 -0.23758 2511 ft 194 kts 171°
2026-04-19 15:38 50.91895 -0.23455 2723 ft 185 kts 171°
2026-04-19 15:38 50.90651 -0.23174 3028 ft 176 kts 171°
2026-04-19 15:38 50.89507 -0.22653 3279 ft 171 kts 143°
2026-04-19 15:38 50.88837 -0.21119 3286 ft 175 kts 104°
2026-04-19 15:39 50.88514 -0.19224 3288 ft 181 kts 101°
2026-04-19 15:39 50.88008 -0.17382 3284 ft 189 kts 129°
2026-04-19 15:39 50.86853 -0.16401 3284 ft 194 kts 170°
2026-04-19 15:39 50.85546 -0.16781 3283 ft 194 kts 210°
2026-04-19 15:40 50.84686 -0.18357 3284 ft 191 kts 251°
2026-04-19 15:40 50.84591 -0.20404 3286 ft 186 kts 279°
2026-04-19 15:40 50.84780 -0.22430 3287 ft 186 kts 284°
2026-04-19 15:40 50.85106 -0.24396 3287 ft 184 kts 290°
2026-04-19 15:41 50.85491 -0.26303 3283 ft 183 kts 291°
2026-04-19 15:41 50.85878 -0.28225 3284 ft 183 kts 291°
2026-04-19 15:41 50.86260 -0.30151 3284 ft 183 kts 291°
2026-04-19 15:41 50.86639 -0.32074 3286 ft 184 kts 290°
2026-04-19 15:42 50.87194 -0.33855 3285 ft 180 kts 317°
2026-04-19 15:42 50.88295 -0.34629 3286 ft 175 kts 358°
2026-04-19 15:42 50.89477 -0.34189 3288 ft 176 kts 20°
2026-04-19 15:42 50.90612 -0.33460 3286 ft 175 kts 21°
2026-04-19 15:43 50.91744 -0.32742 3288 ft 175 kts 21°
2026-04-19 15:43 50.92875 -0.32022 3288 ft 175 kts 21°
2026-04-19 15:43 50.94008 -0.31305 3289 ft 176 kts 21°
2026-04-19 15:44 50.96280 -0.29877 3289 ft 176 kts 21°
2026-04-19 15:44 50.97416 -0.29157 3289 ft 176 kts 21°
2026-04-19 15:44 50.98554 -0.28432 3288 ft 176 kts 21°
2026-04-19 15:44 50.99693 -0.27704 3289 ft 176 kts 21°
2026-04-19 15:45 51.00830 -0.26976 3291 ft 176 kts 20°
2026-04-19 15:45 51.01968 -0.26245 3286 ft 176 kts 21°
2026-04-19 15:45 51.03093 -0.25520 3288 ft 177 kts 21°
2026-04-19 15:45 51.04251 -0.24787 3103 ft 185 kts 20°
2026-04-19 15:46 51.05441 -0.23837 2680 ft 197 kts 34°
2026-04-19 15:46 51.06396 -0.22492 2590 ft 162 kts 41°
2026-04-19 15:46 51.07126 -0.21374 2583 ft 131 kts 43°
2026-04-19 15:46 51.07402 -0.20144 2582 ft 112 kts 83°
2026-04-19 15:47 51.07424 -0.19014 2584 ft 93 kts 81°
2026-04-19 15:47 51.07471 -0.17793 2603 ft 129 kts 81°
2026-04-19 15:47 51.07566 -0.16230 2599 ft 153 kts 77°
2026-04-19 15:47 51.07759 -0.14485 2598 ft 166 kts 76°
2026-04-19 15:48 51.07976 -0.12640 2599 ft 172 kts 76°
2026-04-19 15:48 51.08196 -0.10779 2601 ft 175 kts 76°
2026-04-19 15:48 51.08415 -0.08869 2605 ft 177 kts 76°
2026-04-19 15:48 51.08643 -0.06929 2603 ft 180 kts 76°
2026-04-19 15:49 51.09050 -0.05076 2589 ft 178 kts 50°
2026-04-19 15:49 51.10089 -0.04108 2584 ft 176 kts
2026-04-19 15:49 51.11304 -0.04139 2581 ft 175 kts
2026-04-19 15:49 51.12330 -0.03151 2582 ft 178 kts 50°
2026-04-19 15:50 51.12695 -0.01272 2588 ft 183 kts 86°
2026-04-19 15:50 51.12626 0.00763 2600 ft 184 kts 91°
2026-04-19 15:50 51.12534 0.02795 2601 ft 184 kts 91°
2026-04-19 15:50 51.12439 0.04834 2606 ft 186 kts 93°
2026-04-19 15:51 51.11907 0.06681 2595 ft 188 kts 131°
2026-04-19 15:51 51.10783 0.07539 2594 ft 178 kts 173°
2026-04-19 15:51 51.09574 0.07541 2600 ft 170 kts 181°
2026-04-19 15:51 51.08409 0.07493 2596 ft 165 kts 181°
2026-04-19 15:52 51.07229 0.07451 2597 ft 177 kts 181°
2026-04-19 15:52 51.05975 0.07284 2591 ft 185 kts 198°
2026-04-19 15:52 51.04970 0.06056 2594 ft 186 kts 240°
2026-04-19 15:52 51.04651 0.04114 2595 ft 182 kts 269°
2026-04-19 15:53 51.04601 0.02107 2597 ft 182 kts 271°
2026-04-19 15:53 51.04545 0.00087 2597 ft 184 kts 271°
2026-04-19 15:53 51.04865 -0.01825 2582 ft 181 kts 307°
2026-04-19 15:53 51.05876 -0.02888 2583 ft 176 kts 348°
2026-04-19 15:54 51.07078 -0.02986 2585 ft 175 kts
2026-04-19 15:54 51.08295 -0.02946 2591 ft 175 kts
2026-04-19 15:54 51.09524 -0.02921 2587 ft 177 kts
2026-04-19 15:54 51.10753 -0.02890 2588 ft 175 kts
2026-04-19 15:55 51.11935 -0.02492 2585 ft 177 kts 29°
2026-04-19 15:55 51.12678 -0.00955 2585 ft 182 kts 70°
2026-04-19 15:55 51.12739 0.01065 2598 ft 184 kts 91°
2026-04-19 15:55 51.12651 0.03105 2597 ft 185 kts 91°
2026-04-19 15:56 51.12208 0.05019 2594 ft 192 kts 127°
2026-04-19 15:56 51.11067 0.06103 2595 ft 196 kts 167°
2026-04-19 15:56 51.09729 0.05861 2592 ft 197 kts 206°
2026-04-19 15:56 51.08781 0.04364 2593 ft 193 kts 246°
2026-04-19 15:57 51.08646 0.02331 2595 ft 185 kts 287°
2026-04-19 15:57 51.09340 0.00736 2596 ft 179 kts 327°
2026-04-19 15:57 51.10519 0.00294 2592 ft 177 kts
2026-04-19 15:57 51.11566 0.01252 2594 ft 178 kts 49°
2026-04-19 15:58 51.11934 0.03122 2598 ft 184 kts 90°
2026-04-19 15:58 51.11416 0.04990 2595 ft 191 kts 131°
2026-04-19 15:58 51.10233 0.05924 2593 ft 195 kts 172°
2026-04-19 15:58 51.08929 0.05464 2594 ft 195 kts 213°
2026-04-19 15:59 51.08104 0.03820 2592 ft 191 kts 254°
2026-04-19 15:59 51.08126 0.01810 2590 ft 184 kts 294°
2026-04-19 15:59 51.08952 0.00367 2593 ft 177 kts 335°
2026-04-19 15:59 51.10148 0.00212 2595 ft 176 kts 17°
2026-04-19 16:00 51.11089 0.01412 2594 ft 179 kts 58°
2026-04-19 16:00 51.11274 0.03366 2605 ft 186 kts 98°
2026-04-19 16:00 51.10579 0.05108 2600 ft 193 kts 140°
2026-04-19 16:00 51.09315 0.05766 2607 ft 196 kts 181°
2026-04-19 16:01 51.08063 0.05012 2600 ft 195 kts 221°
2026-04-19 16:01 51.07403 0.03207 2603 ft 189 kts 263°
2026-04-19 16:01 51.07625 0.01233 2600 ft 181 kts 304°
2026-04-19 16:01 51.08583 0.00053 2601 ft 176 kts 345°
2026-04-19 16:02 51.09778 -0.00095 2598 ft 176 kts
2026-04-19 16:02 51.10999 -0.00071 2599 ft 176 kts
2026-04-19 16:02 51.12205 0.00171 2598 ft 176 kts 23°
2026-04-19 16:02 51.13050 0.01550 2603 ft 180 kts 64°
2026-04-19 16:03 51.13186 0.03545 2605 ft 184 kts 90°
2026-04-19 16:03 51.13095 0.05573 2609 ft 183 kts 92°
2026-04-19 16:03 51.12873 0.07576 2601 ft 187 kts 113°
2026-04-19 16:03 51.11938 0.09010 2599 ft 193 kts 154°
2026-04-19 16:04 51.10611 0.09321 2601 ft 195 kts 180°
2026-04-19 16:04 51.09251 0.09269 2599 ft 195 kts 181°
2026-04-19 16:04 51.07908 0.09421 2592 ft 194 kts 160°
2026-04-19 16:04 51.06892 0.10730 2591 ft 189 kts 119°
2026-04-19 16:05 51.06642 0.12699 2593 ft 182 kts 78°
2026-04-19 16:05 51.07244 0.14385 2596 ft 177 kts 38°
2026-04-19 16:05 51.08364 0.14974 2597 ft 176 kts 358°
2026-04-19 16:05 51.09585 0.14609 2555 ft 178 kts 348°
2026-04-19 16:06 51.10786 0.14132 2562 ft 177 kts 346°
2026-04-19 16:06 51.11969 0.13576 2600 ft 175 kts 342°
2026-04-19 16:06 51.13031 0.12682 2690 ft 175 kts 320°
2026-04-19 16:06 51.13557 0.10893 2582 ft 189 kts 282°
2026-04-19 16:07 51.13780 0.08809 2350 ft 197 kts 283°
2026-04-19 16:07 51.14044 0.06654 2205 ft 195 kts 290°
2026-04-19 16:07 51.14514 0.04734 1904 ft 185 kts 295°
2026-04-19 16:07 51.14987 0.02912 1573 ft 173 kts 296°
2026-04-19 16:08 51.15508 0.01115 1478 ft 182 kts 298°
2026-04-19 16:08 51.15981 -0.00783 1454 ft 184 kts 288°
2026-04-19 16:08 51.16111 -0.02803 1468 ft 183 kts 277°
2026-04-19 16:08 51.16177 -0.04863 1122 ft 192 kts 275°
2026-04-19 16:09 51.16166 -0.06736 930 ft 148 kts 272°
2026-04-19 16:09 51.16139 -0.08200 837 ft 126 kts 272°
2026-04-19 16:09 51.16107 -0.09450 723 ft 96 kts 270°
2026-04-19 16:09 51.15971 -0.10393 611 ft 84 kts 256°
2026-04-19 16:10 51.15824 -0.11405 564 ft 102 kts 260°
2026-04-19 16:10 51.15657 -0.12533 564 ft 103 kts 263°
2026-04-19 16:10 51.15537 -0.13663 559 ft 106 kts 263°
2026-04-19 16:10 51.15388 -0.14831 453 ft 111 kts 259°
2026-04-19 16:11 51.15225 -0.16045 332 ft 114 kts 258°
2026-04-19 16:11 51.15063 -0.17202 206 ft 89 kts 257°
2026-04-19 16:11 51.14959 -0.17950 199 ft 54 kts 258°
2026-04-19 16:11 51.14856 -0.18702 217 ft 92 kts 258°
2026-04-19 16:12 51.14689 -0.19914 212 ft 129 kts 258°
2026-04-19 16:12 51.14482 -0.21426 348 ft 136 kts 258°
2026-04-19 16:12 51.14001 -0.22434 1046 ft 119 kts 195°
2026-04-19 16:12 51.13073 -0.22456 1101 ft 150 kts 179°
2026-04-19 16:13 51.11968 -0.22430 1129 ft 168 kts 178°
2026-04-19 16:13 51.10842 -0.22535 1722 ft 139 kts 181°
2026-04-19 16:13 51.09991 -0.22556 2477 ft 113 kts 179°
2026-04-19 16:13 51.09165 -0.22536 2655 ft 139 kts 178°
2026-04-19 16:14 51.08093 -0.22498 2683 ft 164 kts 178°
2026-04-19 16:14 51.06901 -0.22457 2626 ft 183 kts 178°
2026-04-19 16:14 51.05582 -0.22408 2516 ft 193 kts 178°
2026-04-19 16:14 51.04242 -0.22352 2508 ft 193 kts 178°
2026-04-19 16:15 51.02885 -0.22307 2421 ft 197 kts 178°
2026-04-19 16:15 51.01502 -0.22269 2301 ft 200 kts 178°
2026-04-19 16:15 51.00101 -0.22231 2156 ft 202 kts 179°
2026-04-19 16:15 50.98749 -0.22196 2523 ft 174 kts 179°
2026-04-19 16:16 50.97634 -0.22169 3143 ft 153 kts 179°
2026-04-19 16:16 50.96563 -0.22147 3397 ft 156 kts 179°
2026-04-19 16:16 50.95301 -0.22160 2247 ft 192 kts 181°
2026-04-19 16:16 50.93986 -0.22216 2046 ft 195 kts 181°
2026-04-19 16:17 50.92621 -0.22276 1981 ft 198 kts 181°
2026-04-19 16:17 50.91241 -0.22327 1857 ft 200 kts 181°
2026-04-19 16:17 50.89855 -0.22383 1895 ft 196 kts 182°
2026-04-19 16:17 50.88919 -0.23028 1958 ft 192 kts 219°
2026-04-19 16:18 50.88257 -0.23824 1930 ft 194 kts 219°
2026-04-19 16:18 50.87184 -0.25109 1930 ft 194 kts 218°
2026-04-19 16:18 50.85680 -0.26704 1770 ft 199 kts 209°
2026-04-19 16:18 50.84342 -0.26788 1487 ft 203 kts 171°
2026-04-19 16:19 50.82895 -0.25949 359 ft 234 kts 135°
2026-04-19 16:19 50.82653 -0.24438 434 ft 206 kts 88°
2026-04-19 16:19 50.82611 -0.22270 387 ft 195 kts 97°
2026-04-19 16:19 50.82329 -0.20285 789 ft 165 kts 101°
2026-04-19 16:20 50.82069 -0.18513 905 ft 172 kts 111°
2026-04-19 16:20 50.81495 -0.16850 742 ft 183 kts 97°
2026-04-19 16:20 50.81293 -0.14792 319 ft 198 kts 97°
2026-04-19 16:20 50.81280 -0.14191 689 ft 147 kts 87°
2026-04-19 16:21 50.80938 -0.13836 1002 ft 142 kts 283°
2026-04-19 16:21 50.80900 -0.15626 461 ft 177 kts 292°
2026-04-19 16:21 50.81900 -0.16316 252 ft 179 kts 41°
2026-04-19 16:21 50.81771 -0.14394 232 ft 186 kts 106°
2026-04-19 16:22 50.81318 -0.13471 582 ft 147 kts 299°
2026-04-19 16:22 50.81696 -0.15065 561 ft 99 kts 298°
2026-04-19 16:22 50.81835 -0.16440 960 ft 20 kts 74°
2026-04-19 16:22 50.81842 -0.15063 175 ft 190 kts 94°
2026-04-19 16:23 50.81411 -0.14839 411 ft 158 kts 350°
2026-04-19 16:23 50.81474 -0.13230 163 ft 179 kts 96°
2026-04-19 16:23 50.81342 -0.12314 1077 ft 92 kts 273°
2026-04-19 16:23 50.81595 -0.13731 832 ft 51 kts 252°
2026-04-19 16:24 50.81425 -0.13961 1395 ft 41 kts 239°
2026-04-19 16:24 50.82067 -0.14651 487 ft 165 kts
2026-04-19 16:24 50.81877 -0.14126 116 ft 193 kts 178°
2026-04-19 16:24 50.81306 -0.14798 83 ft 167 kts 20°
2026-04-19 16:25 50.81853 -0.14194 1041 ft 99 kts 253°
2026-04-19 16:25 50.81408 -0.15565 130 ft 162 kts 243°
2026-04-19 16:25 50.81916 -0.15488 282 ft 159 kts 58°
2026-04-19 16:25 50.81708 -0.13800 396 ft 146 kts 82°
2026-04-19 16:26 50.81886 -0.12716 1155 ft 54 kts 267°
2026-04-19 16:26 50.81309 -0.13005 201 ft 144 kts 160°
2026-04-19 16:26 50.80569 -0.13281 332 ft 141 kts 293°
2026-04-19 16:26 50.81487 -0.13707 103 ft 162 kts
2026-04-19 16:27 50.82471 -0.13603 779 ft 120 kts 359°
2026-04-19 16:27 50.82827 -0.14402 802 ft 149 kts 256°
2026-04-19 16:27 50.82402 -0.16104 456 ft 182 kts 250°
2026-04-19 16:27 50.82267 -0.18056 589 ft 150 kts 279°
2026-04-19 16:28 50.82305 -0.19343 1710 ft 94 kts 276°
2026-04-19 16:28 50.82308 -0.20656 1609 ft 144 kts 275°
2026-04-19 16:28 50.82319 -0.22394 1476 ft 168 kts 274°
2026-04-19 16:28 50.82317 -0.24305 245 ft 210 kts 275°
2026-04-19 16:29 50.82637 -0.26568 90 ft 206 kts 268°
2026-04-19 16:29 50.82559 -0.28728 66 ft 192 kts 253°
2026-04-19 16:29 50.82242 -0.30723 52 ft 184 kts 250°
2026-04-19 16:29 50.81913 -0.32661 43 ft 180 kts 252°
2026-04-19 16:30 50.81441 -0.34437 38 ft 178 kts 250°
2026-04-19 16:30 50.81047 -0.36276 34 ft 176 kts 246°
2026-04-19 16:30 50.80756 -0.38101 43 ft 174 kts 255°
2026-04-19 16:30 50.80589 -0.39991 31 ft 172 kts 265°
2026-04-19 16:31 50.80514 -0.41870 27 ft 171 kts 264°
2026-04-19 16:31 50.80302 -0.43256 1463 ft 125 kts 263°
2026-04-19 16:31 50.80202 -0.45258 63 ft 201 kts 259°
2026-04-19 16:31 50.80269 -0.47254 104 ft 169 kts 269°
2026-04-19 16:32 50.80269 -0.49042 70 ft 155 kts 271°
2026-04-19 16:32 50.80262 -0.50687 24 ft 144 kts 269°
2026-04-19 16:32 50.80226 -0.52170 174 ft 111 kts 272°
2026-04-19 16:32 50.80195 -0.53122 605 ft 85 kts 274°
2026-04-19 16:33 50.80340 -0.54201 425 ft 113 kts 296°
2026-04-19 16:33 50.80663 -0.55417 417 ft 126 kts 295°
2026-04-19 16:33 50.81183 -0.56456 346 ft 132 kts 302°
2026-04-19 16:33 50.81553 -0.57749 582 ft 108 kts 296°
2026-04-19 16:34 50.81822 -0.58880 516 ft 121 kts 296°
2026-04-19 16:34 50.82158 -0.60191 357 ft 129 kts 295°
2026-04-19 16:34 50.82386 -0.61546 348 ft 108 kts 273°
2026-04-19 16:34 50.82368 -0.62504 776 ft 94 kts 276°
2026-04-19 16:35 50.82369 -0.63655 632 ft 115 kts 275°
2026-04-19 16:35 50.82377 -0.64998 551 ft 126 kts 272°
2026-04-19 16:35 50.82377 -0.66369 581 ft 128 kts 275°
2026-04-19 16:35 50.82528 -0.67772 556 ft 130 kts 299°
2026-04-19 16:36 50.82947 -0.69026 610 ft 127 kts 305°
2026-04-19 16:36 50.83391 -0.70286 524 ft 135 kts 303°
2026-04-19 16:36 50.83881 -0.71567 479 ft 137 kts 303°
2026-04-19 16:36 50.84204 -0.72606 1222 ft 65 kts 261°
2026-04-19 16:37 50.84203 -0.73778 440 ft 127 kts 282°
2026-04-19 16:37 50.84638 -0.74496 265 ft 77 kts 335°
2026-04-19 16:37 50.85110 -0.74862 214 ft 87 kts 329°
2026-04-19 16:37 50.85536 -0.75396 109 ft 69 kts 320°
2026-04-19 16:38 50.85805 -0.75776 97 ft 20 kts 317°
2026-04-19 16:38 50.85830 -0.75767 98 ft 5 kts 57°
2026-04-19 16:38 50.85834 -0.75729 99 ft 10 kts 84°
2026-04-19 16:38 50.85822 -0.75548 100 ft 16 kts 138°
2026-04-19 16:39 50.85757 -0.75550 100 ft 6 kts 241°
2026-04-19 16:39 50.85767 -0.75589 100 ft 2 kts 317°
2026-04-19 16:39 50.85768 -0.75591 100 ft 0 kts 328°